Weather Roundup
Issued by NWS Chicago, IL

Home | Current Version | Previous Version | Graphics & Text | Print | Product List | Glossary On
Versions: 1 2 3 4 5 6 7 8 9 10 11 12 13 14 15 16 17 18 19 20 21 22 23 24 25 26 27 28 29 30 31 32 33 34 35 36 37 38 39 40 41 42 43 44 45 46 47 48 49 50
244
NZUS59 KLOT 101003
HRRLOT

CHICAGO AREA WEATHER ROUNDUP
NATIONAL WEATHER SERVICE CHICAGO/ROMEOVILLE IL
400 AM CST WED FEB 10 2016

NOTE: "FAIR" INDICATES FEW OR NO CLOUDS BELOW 12,000 FEET WITH NO
SIGNIFICANT WEATHER AND/OR OBSTRUCTIONS TO VISIBILITY.

* THESE STATIONS ARE NOT UNDER NWS QUALITY CONTROL. THEY ALSO MAY NOT
  REPORT WEATHER SUCH AS PRECIPITATION OR FOG.

ILZ005-006-012>014-019>023-101100-
NORTHEAST ILLINOIS

CITY           SKY/WX    TMP DP  RH WIND       PRES   REMARKS
OHARE          PTCLDY    10   1  67 NW12      29.97R WCI  -5
MIDWAY         PTCLDY    13   1  59 NW15      29.98R WCI  -3
AURORA         CLOUDY    12   3  67 NW14      30.00R WCI  -3
LANSING*       PTCLDY    13   4  66 NW13      29.97R WCI  -2
WAUKEGAN       PTCLDY     9   1  70 NW7       29.96R WCI  -2
DUPAGE AIRPORT CLEAR     10  -1  61 NW16      29.98R WCI  -7
WHEELING       PTCLDY    10   1  67 NW13      29.98R WCI  -5
MORRIS*        PTCLDY    11   3  70 NW12      29.98R WCI  -4
$$

WIZ051-052-058>065-066-070>072-101100-
SOUTHEAST WISCONSIN

CITY           SKY/WX    TMP DP  RH WIND       PRES   REMARKS
MILWAUKEE      CLEAR     10   0  63 NW12      29.95R WCI  -5
KENOSHA*       CLOUDY    10   0  63 NW12      29.96R WCI  -5
RACINE*        MOCLDY    10  -1  61 NW7       29.97R WCI  -1
BURLINGTON     CLEAR      6  -2  69 NW9       29.95F WCI  -8
$$

INZ001>003-010>013-019-020-101100-
NORTHWEST INDIANA

CITY           SKY/WX    TMP DP  RH WIND       PRES   REMARKS
GARY*          NOT AVBL
MICHIGAN CITY* NOT AVBL
RENSSELAER*    NOT AVBL
VALPARAISO     LGT SNOW  15   9  76 NW15G23   29.92R WCI   0
$$

LMZ740>746-101100-
SOUTHERN LAKE MICHIGAN

STATION/POSITION TIME  SKY/WX   TEMP WIND        PRES    VSBY
                                AIR  DIR/SP/G
                 (UTC)          (F)  (DEG/KT/KT) (MB)    (MI)
HARRISON CRIB    0900            15  310/ 22/ 25   N/A
BURNHAM HARBOR   1000            13  310/ 10/ 18   N/A
CALUMET HARBOR   0900            13  290/ 13/ 18 1013.8R
BURNS HARBOR     0900            18  310/ 20     1013.5S
MICHIGAN CITY    0900            19  280/ 26/ 30   N/A
$$

ABBREVIATIONS USED IN REMARKS
   TC - TEMPERATURE IN CELSIUS
  WCI - WIND CHILL INDEX
   HX - HEAT INDEX
  VSB - VISIBILITY
$$




USA.gov is the U.S. government's official web portal to all federal, state and local government web resources and services.